[[{"header":{"parameterUnit":"m.s-1","parameterCategory":1,"la1":30.2991,"la2":30.254,"lo1":-89.0895,"lo2":-89.0444,"dy":0.0017,"dx":0.0017,"nx":28,"ny":28,"refTime":"2025-01-23T03:00:00:Z","depth":0,"parameterNumber":2,"parameterNumberName":"U-component_of_WINDS"},"data":[0,0,0,0,0,0,0,0,0,0,0,0,0,0,0,0,0,0,0,0,0,0,0,0,0,0,0,0,0,0,0,0,0,0,0,0,0,0,0,0,0,0,0,0,0,0,0,0,0,0,0,0,0,0,0,0,0,0,0.0201,0.02,0,0.0073,0.0071,0.007,0.0056,0.0058,0.0059,0.006,-0.0075,-0.008,-0.0085,0,0,0,0,0,0,0,0,0,0,0,0,0,0.043,0.0426,0.0201,0.02,0.0198,0.0073,0.0071,0.007,0.0056,0.0058,0.0059,0.0061,-0.0074,-0.0079,-0.0085,0,0,0,0,0,0,0,0,0,0,0,0,0,0.0319,0.0425,0.0202,0.0176,0.0173,0.0074,0.0071,0.0069,0.0056,0.0058,0.006,0.0062,-0.0072,-0.0079,-0.0086,-0.017,0,0,-0.0108,-0.0111,0,0,0,0,0,0,0,0,0.0325,0.0311,0.0182,0.0178,0.0174,0.0083,0.0102,-0.0011,0.0055,0.01,0.006,0.0062,-0.0025,-0.0036,-0.0064,-0.0177,-0.0183,-0.0109,-0.0113,-0.0116,-0.0118,0,0,0,0,0,0,0,0.0333,0.0316,0.015,0.018,0.0175,0.017,0.0156,0.0081,0.0028,0.0096,0.0095,0.008,-0.0026,-0.0057,-0.0067,-0.0185,-0.0109,-0.0115,-0.012,-0.0122,-0.0375,-0.0377,0,0,0,0,0,0,0.0346,0.0323,0.0154,0.0147,0.0256,0.0164,0.0149,0.011,0.0029,0.0019,0.0079,0.008,-0.0046,-0.0059,-0.0072,-0.0179,-0.0116,-0.0123,-0.0127,-0.0373,-0.0376,-0.0378,0,0,0,0,0,0,0.0351,0.0331,0.016,0.0234,0.0212,0.0158,0.0114,0.0106,0.0076,0.0016,0.0006,0.0057,-0.0045,-0.0062,-0.0146,-0.0183,-0.0126,-0.0133,-0.037,-0.0374,-0.0377,-0.039,0,0,0,0,0,0,0.0358,0.0333,0.0302,0.0234,0.0208,0.0089,0.0112,0.0102,0.0064,0.0064,-0.0007,-0.0017,-0.0045,-0.0135,-0.0153,-0.0192,-0.0139,-0.0367,-0.0372,-0.0376,-0.0387,-0.0394,-0.04,0,0,0,0,0,0.0366,0.0303,0.03,0.028,0.0168,0.0087,0.0072,0.0043,0.0061,0.0027,-0.0011,-0.0015,-0.0176,-0.0144,-0.0164,-0.0206,-0.0365,-0.037,-0.0376,-0.0384,-0.0392,-0.04,0,0,0,0,0,0,0.0366,0.0293,0.029,0.0203,0.0151,0.0085,0.0042,0.0036,-0.0023,-0.002,-0.0055,-0.0071,-0.0154,-0.0188,-0.0151,-0.0293,-0.0269,-0.0278,-0.0268,-0.0277,-0.0283,-0.0274,-0.0145,0,0,0,0,0,0.0357,0.0299,0.0237,0.0167,0.0141,0.0096,0.006,0.0042,-0.0013,-0.0035,-0.008,-0.0135,-0.0198,-0.0239,-0.03,-0.0391,-0.0408,-0.043,-0.0436,-0.0441,-0.045,-0.0503,-0.0514,-0.0396,-0.0396,-0.0396,0,0,0.0335,0.0288,0.0253,0.0165,0.0123,0.0062,0.0078,0.0013,-0.0033,-0.0045,-0.0128,-0.0163,-0.0226,-0.0314,-0.0356,-0.0345,-0.0486,-0.0448,-0.0451,-0.0458,-0.051,-0.0521,-0.0531,-0.0399,-0.0399,-0.0398,0,0,0.0264,0.0224,0.016,0.0118,0.0054,0.0025,0.001,-0.0056,-0.0079,-0.0162,-0.0173,-0.0229,-0.0336,-0.0382,-0.0419,-0.0507,-0.0514,-0.0526,-0.0561,-0.0612,-0.0622,-0.063,-0.0664,-0.0676,-0.0534,-0.0534,-0.0534,0,0.0245,0.0154,0.0127,0.0062,0.0022,0.001,-0.0057,-0.0096,-0.0177,-0.0205,-0.0191,-0.0327,-0.037,-0.0471,-0.0492,-0.0521,-0.0542,-0.0519,-0.0618,-0.0626,-0.0635,-0.0668,-0.068,-0.0535,-0.0535,-0.0535,-0.0535,0,0.0132,0.0069,0.0024,-0.0052,-0.0096,-0.0162,-0.02,-0.0242,-0.0256,-0.0287,-0.0373,-0.0425,-0.0498,-0.0522,-0.0536,-0.0625,-0.0617,-0.061,-0.0587,-0.0647,-0.0679,-0.0691,-0.0537,-0.0536,-0.0536,-0.0536,0,0,0.0056,-0.0034,-0.005,-0.0086,-0.0156,-0.0207,-0.0273,-0.0343,-0.038,-0.0434,-0.0493,-0.0583,-0.0578,-0.062,-0.0639,-0.0684,-0.0754,-0.0672,-0.0674,-0.0688,-0.0858,-0.0865,-0.0879,-0.0757,-0.076,-0.0762,-0.0854,0,-0.0025,-0.0143,-0.0169,-0.0272,-0.0332,-0.0344,-0.0403,-0.0453,-0.0484,-0.0541,-0.0575,-0.064,-0.0626,-0.0652,-0.0696,-0.0736,-0.0789,-0.0729,-0.0815,-0.0818,-0.0801,-0.0895,-0.0902,-0.0987,-0.0866,-0.0868,-0.0869,0,-0.0135,-0.0192,-0.03,-0.0364,-0.039,-0.0442,-0.051,-0.0563,-0.0621,-0.064,-0.0687,-0.0702,-0.0774,-0.0745,-0.0846,-0.0805,-0.0841,-0.0866,-0.087,-0.0882,-0.0849,-0.0912,-0.1014,-0.1028,-0.0889,-0.0887,-0.0886,0,-0.0183,-0.0287,-0.0365,-0.0395,-0.0471,-0.0508,-0.0541,-0.0597,-0.0638,-0.0697,-0.0724,-0.0791,-0.0828,-0.088,-0.0914,-0.0889,-0.1013,-0.0986,-0.1033,-0.1033,-0.1061,-0.106,-0.1174,-0.108,-0.108,-0.1079,-0.1079,0,-0.0273,-0.0339,-0.0388,-0.0437,-0.0512,-0.0542,-0.0617,-0.065,-0.07,-0.0757,-0.0771,-0.0825,-0.0864,-0.0923,-0.0949,-0.1031,-0.1047,-0.1066,-0.1073,-0.1067,-0.1065,-0.1093,-0.109,-0.1083,-0.1082,-0.1081,-0.1081,0,-0.034,-0.0375,-0.0462,-0.0526,-0.0544,-0.0597,-0.0653,-0.0702,-0.0732,-0.0805,-0.0823,-0.0872,-0.0943,-0.098,-0.1069,-0.1087,-0.1179,-0.1181,-0.1159,-0.1163,-0.1209,-0.1205,-0.1348,-0.1369,-0.1258,-0.1259,-0.126,0,-0.0396,-0.0448,-0.0517,-0.0556,-0.059,-0.0652,-0.0693,-0.0725,-0.0768,-0.0839,-0.0879,-0.095,-0.1009,-0.1122,-0.1167,-0.1235,-0.1241,-0.1286,-0.1251,-0.1244,-0.1245,-0.1243,-0.1249,-0.1293,-0.1294,-0.1295,-0.1295,0,-0.0493,-0.0508,-0.0567,-0.0632,-0.0681,-0.0735,-0.0787,-0.0818,-0.0859,-0.0907,-0.0979,-0.1024,-0.1114,-0.1186,-0.1258,-0.1294,-0.1303,-0.1305,-0.1321,-0.1316,-0.1303,-0.1314,-0.1179,-0.1303,-0.1302,-0.1302,-0.1301,-0.1301,-0.0559,-0.0606,-0.0663,-0.0728,-0.0771,-0.082,-0.0869,-0.0906,-0.0966,-0.1041,-0.1056,-0.1133,-0.1191,-0.1288,-0.1327,-0.1389,-0.138,-0.1401,-0.1407,-0.1412,-0.1416,-0.129,-0.1401,-0.1401,-0.1401,-0.1401,-0.1401,0,-0.0659,-0.0696,-0.0756,-0.0829,-0.0881,-0.0882,-0.094,-0.0985,-0.1052,-0.1104,-0.1162,-0.1246,-0.1315,-0.1365,-0.1436,-0.1476,-0.1482,-0.1494,-0.1493,-0.1502,-0.1418,-0.1399,-0.1488,-0.1488,-0.1488,-0.1488,-0.1488,-0.1488,-0.0717,-0.0798,-0.0819,-0.0922,-0.0958,-0.1033,-0.1067,-0.1113,-0.1155,-0.1248,-0.1305,-0.1336,-0.1389,-0.1464,-0.1529,-0.1542,-0.1569,-0.1581,-0.1595,-0.1516,-0.1507,-0.1499,-0.1481,-0.1586,-0.1586,-0.1673,-0.1674,-0.1675]},{"header":{"parameterUnit":"m.s-1","parameterCategory":1,"la1":30.2991,"la2":30.254,"lo1":-89.0895,"lo2":-89.0444,"dy":0.0017,"dx":0.0017,"nx":28,"ny":28,"refTime":"2025-01-23T03:00:00:Z","depth":0,"parameterNumber":3,"parameterNumberName":"V-component_of_WINDS"},"data":[0,0,0,0,0,0,0,0,0,0,0,0,0,0,0,0,0,0,0,0,0,0,0,0,0,0,0,0,0,0,0,0,0,0,0,0,0,0,0,0,0,0,0,0,0,0,0,0,0,0,0,0,0,0,0,0,0,0,-3.3119,-3.3119,0,-3.3119,-3.3119,-3.3119,-3.3048,-3.3047,-3.3045,-3.3043,-3.3043,-3.3045,-3.3047,0,0,0,0,0,0,0,0,0,0,0,0,0,-3.3055,-3.3057,-3.3119,-3.3119,-3.3119,-3.3119,-3.3119,-3.3119,-3.3049,-3.3046,-3.3044,-3.3042,-3.3043,-3.3045,-3.3047,0,0,0,0,0,0,0,0,0,0,0,0,0,-3.3072,-3.3058,-3.3119,-3.3084,-3.3081,-3.3119,-3.3119,-3.3119,-3.3049,-3.3046,-3.3044,-3.3041,-3.3042,-3.3045,-3.3047,-3.312,0,0,-3.3055,-3.3056,0,0,0,0,0,0,0,0,-3.3071,-3.3075,-3.3089,-3.3086,-3.3083,-3.3081,-3.3097,-3.312,-3.305,-3.3061,-3.3043,-3.304,-3.3058,-3.3059,-3.3065,-3.312,-3.312,-3.3055,-3.3057,-3.3058,-3.3059,0,0,0,0,0,0,0,-3.307,-3.3074,-3.3119,-3.3089,-3.3086,-3.3067,-3.3067,-3.3101,-3.3075,-3.306,-3.3055,-3.3056,-3.3056,-3.3063,-3.3065,-3.312,-3.3055,-3.3058,-3.3059,-3.306,-3.323,-3.3232,0,0,0,0,0,0,-3.3074,-3.3074,-3.3119,-3.3119,-3.307,-3.3071,-3.307,-3.3084,-3.3075,-3.3071,-3.3058,-3.3053,-3.306,-3.3062,-3.3065,-3.3146,-3.3058,-3.3061,-3.3062,-3.3227,-3.323,-3.3233,0,0,0,0,0,0,-3.3073,-3.3079,-3.3119,-3.3095,-3.3099,-3.3075,-3.3092,-3.3086,-3.3093,-3.3073,-3.3068,-3.307,-3.3058,-3.3061,-3.3106,-3.3145,-3.3062,-3.3064,-3.3223,-3.3228,-3.3232,-3.3311,0,0,0,0,0,0,-3.3072,-3.3079,-3.3107,-3.3096,-3.31,-3.3161,-3.3094,-3.3088,-3.3098,-3.309,-3.3084,-3.308,-3.3056,-3.3102,-3.3108,-3.3147,-3.3066,-3.322,-3.3225,-3.323,-3.3305,-3.3318,-3.3329,0,0,0,0,0,-3.3069,-3.313,-3.3109,-3.3115,-3.3135,-3.3164,-3.3166,-3.3137,-3.3101,-3.3128,-3.3115,-3.308,-3.314,-3.3107,-3.3114,-3.3154,-3.3217,-3.3224,-3.323,-3.33,-3.3315,-3.3329,0,0,0,0,0,0,-3.3147,-3.3128,-3.3104,-3.3163,-3.3165,-3.3152,-3.3185,-3.3155,-3.3168,-3.316,-3.3124,-3.3123,-3.3173,-3.3168,-3.3132,-3.3222,-3.3172,-3.318,-3.3223,-3.3238,-3.3249,-3.3249,-3.3069,0,0,0,0,0,-3.3171,-3.3196,-3.3178,-3.3232,-3.3234,-3.321,-3.3221,-3.3199,-3.3199,-3.32,-3.319,-3.3192,-3.3211,-3.3224,-3.3241,-3.3305,-3.33,-3.3335,-3.3347,-3.3357,-3.3364,-3.3394,-3.3408,-3.3255,-3.3255,-3.3255,0,0,-3.3221,-3.3214,-3.3232,-3.3247,-3.3246,-3.3272,-3.3211,-3.3242,-3.326,-3.3205,-3.3245,-3.3238,-3.3238,-3.3291,-3.3314,-3.3289,-3.3405,-3.3365,-3.3373,-3.3375,-3.3402,-3.3417,-3.3429,-3.3259,-3.3258,-3.3258,0,0,-3.3324,-3.3322,-3.3365,-3.3365,-3.3363,-3.3346,-3.3357,-3.3347,-3.3339,-3.338,-3.3338,-3.3359,-3.3393,-3.3394,-3.3398,-3.3499,-3.3466,-3.3505,-3.3567,-3.3597,-3.3609,-3.3619,-3.3652,-3.3665,-3.3513,-3.3513,-3.3513,0,-3.3386,-3.3423,-3.3391,-3.3423,-3.343,-3.3381,-3.3423,-3.3424,-3.3429,-3.3434,-3.3406,-3.3445,-3.3442,-3.3493,-3.3517,-3.3524,-3.3533,-3.3505,-3.361,-3.362,-3.3629,-3.366,-3.3673,-3.3518,-3.3517,-3.3517,-3.3516,0,-3.3498,-3.3524,-3.3559,-3.3563,-3.3574,-3.3612,-3.3584,-3.3599,-3.3575,-3.356,-3.36,-3.3594,-3.3607,-3.3618,-3.3596,-3.3665,-3.3649,-3.3616,-3.3565,-3.3649,-3.3677,-3.3689,-3.3524,-3.3523,-3.3521,-3.352,0,0,-3.3651,-3.3635,-3.3648,-3.3647,-3.3641,-3.366,-3.3695,-3.3707,-3.3719,-3.3723,-3.3749,-3.3778,-3.3746,-3.3752,-3.3729,-3.3755,-3.3831,-3.3718,-3.3717,-3.3737,-3.3904,-3.3928,-3.3942,-3.381,-3.3812,-3.3814,-3.3903,0,-3.3749,-3.3805,-3.3776,-3.3836,-3.3859,-3.3811,-3.384,-3.3839,-3.3826,-3.3842,-3.3827,-3.3847,-3.3805,-3.3808,-3.3832,-3.3817,-3.3864,-3.3811,-3.3832,-3.3833,-3.3832,-3.3958,-3.3983,-3.4068,-3.3915,-3.3917,-3.3918,0,-3.3871,-3.3878,-3.394,-3.3926,-3.3935,-3.3962,-3.3968,-3.3985,-3.3982,-3.397,-3.3975,-3.3945,-3.3976,-3.3927,-3.3967,-3.3932,-3.3939,-3.3933,-3.3935,-3.3934,-3.3879,-3.3958,-3.4095,-3.4106,-3.3936,-3.3934,-3.3933,0,-3.3972,-3.3998,-3.4037,-3.4039,-3.4025,-3.4045,-3.404,-3.4034,-3.4042,-3.4048,-3.4052,-3.4063,-3.4068,-3.4076,-3.4048,-3.4015,-3.4092,-3.4041,-3.4081,-3.4082,-3.4098,-3.4097,-3.4236,-3.4107,-3.4107,-3.4107,-3.4107,0,-3.4083,-3.4122,-3.4082,-3.4107,-3.4148,-3.4114,-3.4156,-3.4146,-3.414,-3.4161,-3.4121,-3.4141,-3.4105,-3.4121,-3.41,-3.4135,-3.4138,-3.4129,-3.4122,-3.4131,-3.4132,-3.4134,-3.4126,-3.411,-3.4109,-3.4109,-3.4108,0,-3.4204,-3.4179,-3.4218,-3.4201,-3.4197,-3.4228,-3.4213,-3.4234,-3.4217,-3.4243,-3.4247,-3.4222,-3.4238,-3.4212,-3.4226,-3.4212,-3.426,-3.4245,-3.426,-3.4255,-3.4296,-3.4292,-3.4439,-3.4455,-3.4319,-3.432,-3.4321,0,-3.4275,-3.4303,-3.4288,-3.4298,-3.4295,-3.4313,-3.432,-3.4287,-3.4296,-3.4293,-3.4314,-3.4326,-3.4335,-3.4363,-3.4345,-3.4355,-3.4339,-3.439,-3.434,-3.4347,-3.4336,-3.4334,-3.4335,-3.4399,-3.4401,-3.4402,-3.4403,0,-3.4403,-3.4389,-3.4401,-3.4407,-3.4417,-3.4421,-3.4422,-3.4433,-3.4397,-3.4409,-3.4425,-3.4431,-3.4444,-3.4456,-3.4461,-3.4455,-3.4423,-3.4419,-3.4428,-3.4437,-3.4443,-3.4437,-3.4285,-3.4416,-3.4414,-3.4414,-3.4413,-3.4412,-3.45,-3.4521,-3.4513,-3.4526,-3.4523,-3.4525,-3.4542,-3.4527,-3.4539,-3.4546,-3.4526,-3.4546,-3.4539,-3.4542,-3.4539,-3.4553,-3.4531,-3.4545,-3.4548,-3.4552,-3.4557,-3.4442,-3.4555,-3.4554,-3.4554,-3.4553,-3.4553,0,-3.4623,-3.4615,-3.4628,-3.4629,-3.4639,-3.4608,-3.4606,-3.4617,-3.4634,-3.4631,-3.4639,-3.4655,-3.4666,-3.4649,-3.4657,-3.4671,-3.4656,-3.4674,-3.4671,-3.467,-3.4578,-3.4568,-3.4686,-3.4686,-3.4686,-3.4686,-3.4686,-3.4686,-3.4689,-3.4723,-3.4707,-3.4738,-3.4729,-3.4747,-3.4749,-3.4749,-3.4745,-3.4765,-3.4774,-3.4762,-3.4752,-3.4758,-3.4766,-3.4761,-3.4764,-3.4787,-3.4776,-3.469,-3.4677,-3.4665,-3.4654,-3.4789,-3.4789,-3.4866,-3.4867,-3.4867]}]]